DW0416 Weather Reports


Display with metric or nautical units.
time (UTC)temp
F
wind
direction
speed
MPH
gust
MPH
rain 1hr
in
rain 24hr
in
rain mn
in
humidity
%
barometer
mb
20260503191529 64 285 4.0 8.0 0.00 0.00 0.00 20 1016.5
20260503190028 64 279 4.0 8.0 0.00 0.00 0.00 21 1016.8
20260503184517 64 5 3.0 7.0 0.00 0.00 0.00 22 1017.1
20260503183022 63 340 1.0 5.0 0.00 0.00 0.00 22 1017.5
20260503181523 63 58 2.0 5.0 0.00 0.00 0.00 24 1017.7
20260503180011 61 240 1.0 4.0 0.00 0.00 0.00 27 1018.0
20260503174512 58 323 1.0 3.0 0.00 0.00 0.00 35 1018.3
20260503173027 56 191 1.0 3.0 0.00 0.00 0.00 39 1018.5
20260503171523 54 271 0.0 3.0 0.00 0.00 0.00 41 1018.7
20260503081526 39 121 0.0 0.0 0.00 0.00 0.00 59 1020.1
20260503071517 41 112 0.0 2.0 0.00 0.00 0.00 55 1020.0
20260503054519 46 138 0.0 3.0 0.00 0.00 0.00 43 1019.9
20260503053025 46 63 0.0 2.0 0.00 0.00 0.00 43 1019.8
20260503051506 47 153 1.0 2.0 0.00 0.00 0.00 42 1019.8
20260503050022 47 98 0.0 2.0 0.00 0.00 0.00 41 1019.8
20260503044520 49 290 1.0 3.0 0.00 0.00 0.00 39 1019.8
20260503043019 50 60 0.0 1.0 0.00 0.00 0.00 39 1019.7
20260503041532 51 57 1.0 4.0 0.00 0.00 0.00 36 1019.7
20260503040009 52 79 0.0 2.0 0.00 0.00 0.00 34 1019.7
20260503034527 53 117 0.0 2.0 0.00 0.00 0.00 34 1019.6
20260503033018 55 167 0.0 7.0 0.00 0.00 0.00 32 1019.5
20260503031522 56 43 5.0 8.0 0.00 0.00 0.00 29 1019.3
20260503030033 57 39 5.0 8.0 0.00 0.00 0.00 28 1019.2
20260503024509 57 44 5.0 8.0 0.00 0.00 0.00 28 1019.1
20260503023018 58 26 3.0 5.0 0.00 0.00 0.00 27 1018.9
20260503021524 59 334 2.0 6.0 0.00 0.00 0.00 26 1019.0
20260503020030 60 56 1.0 3.0 0.00 0.00 0.00 27 1018.9
20260503014524 63 51 1.0 2.0 0.00 0.00 0.00 24 1018.8
20260503013012 63 281 2.0 5.0 0.00 0.00 0.00 23 1018.7
20260503011518 64 250 1.0 3.0 0.00 0.00 0.00 20 1018.7
20260503010034 64 219 0.0 2.0 0.00 0.00 0.00 21 1018.9
20260503004551 63 193 1.0 7.0 0.00 0.00 0.00 21 1018.9
20260503003026 64 243 5.0 12.0 0.00 0.00 0.00 20 1019.0
20260503001514 65 356 2.0 5.0 0.00 0.00 0.00 20 1018.9
20260503000031 65 275 6.0 10.0 0.00 0.00 0.00 18 1019.1
20260502234528 66 311 5.0 9.0 0.00 0.00 0.00 17 1018.9
20260502233028 65 49 5.0 9.0 0.00 0.00 0.00 19 1018.7
20260502231527 65 288 5.0 9.0 0.00 0.00 0.00 20 1019.0
20260502230021 65 348 4.0 8.0 0.00 0.00 0.00 22 1019.1
20260502224522 64 290 4.0 7.0 0.00 0.00 0.00 22 1019.3
20260502223026 63 347 1.0 8.0 0.00 0.00 0.00 21 1019.5
20260502221526 65 297 2.0 7.0 0.00 0.00 0.00 19 1019.8
20260502220029 65 290 2.0 8.0 0.00 0.00 0.00 19 1020.0
20260502214516 65 226 2.0 7.0 0.00 0.00 0.00 19 1020.2
20260502213021 65 289 4.0 11.0 0.00 0.00 0.00 20 1020.5
20260502211524 64 209 2.0 10.0 0.00 0.00 0.00 21 1020.8
20260502210009 65 274 5.0 12.0 0.00 0.00 0.00 20 1021.0
20260502204514 64 273 4.0 8.0 0.00 0.00 0.00 21 1021.1
20260502203020 63 17 4.0 10.0 0.00 0.00 0.00 20 1021.3
20260502201503 63 293 4.0 10.0 0.00 0.00 0.00 24 1021.5
20260502200008 62 278 5.0 11.0 0.00 0.00 0.00 22 1021.7
20260502194513 63 268 5.0 12.0 0.00 0.00 0.00 20 1021.8
20260502193016 64 168 3.0 6.0 0.00 0.00 0.00 21 1021.7